Time,TemperatureF,DewpointF,PressureIn,WindDirection,WindDirectionDegrees,WindSpeedMPH,WindSpeedGustMPH,Humidity,HourlyPrecipIn,Conditions,Clouds,dailyrainin,SoftwareType,DateUTC
2013-05-17 00:03:00,61.0,-99.9,-100.00,North,-999,-999.0,-999.0,-999,0.41,,,0.63,,2013-05-17 05:03:00,
2013-05-17 00:14:00,61.0,-99.9,-100.00,North,-999,-999.0,-999.0,-999,0.41,,,0.63,,2013-05-17 05:14:00,
2013-05-17 00:22:00,61.0,-99.9,-100.00,North,-999,-999.0,-999.0,-999,0.41,,,0.63,,2013-05-17 05:22:00,
2013-05-17 00:30:00,61.0,-99.9,-100.00,North,-999,-999.0,-999.0,-999,0.10,,,0.73,,2013-05-17 05:30:00,
2013-05-17 00:52:00,61.0,-99.9,-100.00,North,-999,-999.0,-999.0,-999,0.10,,,0.73,,2013-05-17 05:52:00,
2013-05-17 01:02:00,61.0,-99.9,-100.00,North,-999,-999.0,-999.0,-999,0.10,,,0.73,,2013-05-17 06:02:00,
2013-05-17 01:12:00,61.0,-99.9,-100.00,North,-999,-999.0,-999.0,-999,0.10,,,0.73,,2013-05-17 06:12:00,
2013-05-17 01:22:00,61.0,-99.9,-100.00,North,-999,-999.0,-999.0,-999,0.10,,,0.73,,2013-05-17 06:22:00,
2013-05-17 02:30:00,61.0,-99.9,-100.00,North,-999,-999.0,-999.0,-999,0.01,,,0.77,,2013-05-17 07:30:00,
2013-05-17 02:53:00,61.0,-99.9,-100.00,North,-999,-999.0,-999.0,-999,0.01,,,0.77,,2013-05-17 07:53:00,
2013-05-17 03:03:00,61.0,-99.9,-100.00,North,-999,-999.0,-999.0,-999,0.01,,,0.77,,2013-05-17 08:03:00,
2013-05-17 03:12:00,61.0,-99.9,-100.00,North,-999,-999.0,-999.0,-999,0.01,,,0.77,,2013-05-17 08:12:00,
2013-05-17 03:23:00,61.0,-99.9,-100.00,North,-999,-999.0,-999.0,-999,0.01,,,0.77,,2013-05-17 08:23:00,
2013-05-17 03:30:00,61.0,-99.9,-100.00,North,-999,-999.0,-999.0,-999,0.01,,,0.78,,2013-05-17 08:30:00,
2013-05-17 03:52:00,61.0,-99.9,-100.00,North,-999,-999.0,-999.0,-999,0.01,,,0.78,,2013-05-17 08:52:00,
2013-05-17 04:02:00,61.0,-99.9,-100.00,North,-999,-999.0,-999.0,-999,0.01,,,0.78,,2013-05-17 09:02:00,
2013-05-17 04:12:00,61.0,-99.9,-100.00,North,-999,-999.0,-999.0,-999,0.01,,,0.78,,2013-05-17 09:12:00,
2013-05-17 04:23:00,61.0,-99.9,-100.00,North,-999,-999.0,-999.0,-999,0.01,,,0.78,,2013-05-17 09:23:00,
2013-05-17 04:30:00,61.0,-99.9,-100.00,North,-999,-999.0,-999.0,-999,0.00,,,0.78,,2013-05-17 09:30:00,
2013-05-17 04:53:00,61.0,-99.9,-100.00,North,-999,-999.0,-999.0,-999,0.00,,,0.78,,2013-05-17 09:53:00,
2013-05-17 05:03:00,61.0,-99.9,-100.00,North,-999,-999.0,-999.0,-999,0.00,,,0.78,,2013-05-17 10:03:00,
2013-05-17 05:12:00,61.0,-99.9,-100.00,North,-999,-999.0,-999.0,-999,0.00,,,0.78,,2013-05-17 10:12:00,
2013-05-17 05:23:00,61.0,-99.9,-100.00,North,-999,-999.0,-999.0,-999,0.00,,,0.78,,2013-05-17 10:23:00,
2013-05-17 05:30:00,61.0,-99.9,-100.00,North,-999,-999.0,-999.0,-999,0.00,,,0.78,,2013-05-17 10:30:00,
2013-05-17 05:54:00,61.0,-99.9,-100.00,North,-999,-999.0,-999.0,-999,0.00,,,0.78,,2013-05-17 10:54:00,
2013-05-17 06:02:00,61.0,-99.9,-100.00,North,-999,-999.0,-999.0,-999,0.00,,,0.78,,2013-05-17 11:02:00,
2013-05-17 06:12:00,61.0,-99.9,-100.00,North,-999,-999.0,-999.0,-999,0.00,,,0.78,,2013-05-17 11:12:00,
2013-05-17 06:23:00,61.0,-99.9,-100.00,North,-999,-999.0,-999.0,-999,0.00,,,0.78,,2013-05-17 11:23:00,
2013-05-17 06:30:00,61.0,-99.9,-100.00,North,-999,-999.0,-999.0,-999,0.00,,,0.78,,2013-05-17 11:30:00,
2013-05-17 06:53:00,61.0,-99.9,-100.00,North,-999,-999.0,-999.0,-999,0.00,,,0.78,,2013-05-17 11:53:00,
2013-05-17 07:03:00,61.0,-99.9,-100.00,North,-999,-999.0,-999.0,-999,0.00,,,0.78,,2013-05-17 12:03:00,
2013-05-17 07:12:00,61.0,-99.9,-100.00,North,-999,-999.0,-999.0,-999,0.00,,,0.78,,2013-05-17 12:12:00,
2013-05-17 07:23:00,61.0,-99.9,-100.00,North,-999,-999.0,-999.0,-999,0.00,,,0.78,,2013-05-17 12:23:00,
2013-05-17 07:30:00,61.0,-99.9,-100.00,North,-999,-999.0,-999.0,-999,0.00,,,0.78,,2013-05-17 12:30:00,
2013-05-17 07:53:00,61.0,-99.9,-100.00,North,-999,-999.0,-999.0,-999,0.00,,,0.78,,2013-05-17 12:53:00,
2013-05-17 08:04:00,61.0,-99.9,-100.00,North,-999,-999.0,-999.0,-999,0.00,,,0.78,,2013-05-17 13:04:00,
2013-05-17 08:12:00,61.0,-99.9,-100.00,North,-999,-999.0,-999.0,-999,0.00,,,0.78,,2013-05-17 13:12:00,
2013-05-17 08:23:00,61.0,-99.9,-100.00,North,-999,-999.0,-999.0,-999,0.00,,,0.78,,2013-05-17 13:23:00,
2013-05-17 08:30:00,67.0,-99.9,-100.00,North,-999,-999.0,-999.0,-999,0.00,,,0.78,,2013-05-17 13:30:00,
2013-05-17 08:53:00,67.0,-99.9,-100.00,North,-999,-999.0,-999.0,-999,0.00,,,0.78,,2013-05-17 13:53:00,
2013-05-17 09:02:00,67.0,-99.9,-100.00,North,-999,-999.0,-999.0,-999,0.00,,,0.78,,2013-05-17 14:02:00,
2013-05-17 09:13:00,67.0,-99.9,-100.00,North,-999,-999.0,-999.0,-999,0.00,,,0.78,,2013-05-17 14:13:00,
2013-05-17 09:22:00,67.0,-99.9,-100.00,North,-999,-999.0,-999.0,-999,0.00,,,0.78,,2013-05-17 14:22:00,
2013-05-17 09:53:00,76.0,-99.9,-100.00,North,-999,-999.0,-999.0,-999,0.00,,,0.78,,2013-05-17 14:53:00,
2013-05-17 10:57:00,93.0,-99.9,-100.00,North,-999,-999.0,-999.0,-999,0.00,,,0.78,,2013-05-17 15:57:00,
2013-05-17 11:08:00,93.0,-99.9,-100.00,North,-999,-999.0,-999.0,-999,0.00,,,0.78,,2013-05-17 16:08:00,
2013-05-17 11:57:00,112.0,-99.9,-100.00,North,-999,-999.0,-999.0,-999,0.00,,,0.78,,2013-05-17 16:57:00,
2013-05-17 12:08:00,112.0,-99.9,-100.00,North,-999,-999.0,-999.0,-999,0.00,,,0.78,,2013-05-17 17:08:00,
2013-05-17 13:01:00,107.0,-99.9,-100.00,North,-999,-999.0,-999.0,-999,0.00,,,0.78,,2013-05-17 18:01:00,
2013-05-17 13:09:00,107.0,-99.9,-100.00,North,-999,-999.0,-999.0,-999,0.00,,,0.78,,2013-05-17 18:09:00,
2013-05-17 13:30:00,82.0,-99.9,-100.00,North,-999,-999.0,-999.0,-999,-99.99,,,0.78,,2013-05-17 18:30:00,
2013-05-17 14:01:00,82.0,-99.9,-100.00,North,-999,-999.0,-999.0,-999,-99.99,,,0.78,,2013-05-17 19:01:00,
2013-05-17 14:11:00,82.0,-99.9,-100.00,North,-999,-999.0,-999.0,-999,-99.99,,,0.78,,2013-05-17 19:11:00,
2013-05-17 14:20:00,82.0,-99.9,-100.00,North,-999,-999.0,-999.0,-999,-99.99,,,0.78,,2013-05-17 19:20:00,
2013-05-17 14:30:00,83.0,-99.9,-100.00,North,-999,-999.0,-999.0,-999,0.00,,,0.78,,2013-05-17 19:30:00,
2013-05-17 15:10:00,83.0,-99.9,-100.00,North,-999,-999.0,-999.0,-999,0.00,,,0.78,,2013-05-17 20:10:00,
2013-05-17 15:20:00,83.0,-99.9,-100.00,North,-999,-999.0,-999.0,-999,0.00,,,0.78,,2013-05-17 20:20:00,
2013-05-17 15:30:00,84.0,-99.9,-100.00,North,-999,-999.0,-999.0,-999,0.00,,,0.78,,2013-05-17 20:30:00,
2013-05-17 15:58:00,84.0,-99.9,-100.00,North,-999,-999.0,-999.0,-999,0.00,,,0.78,,2013-05-17 20:58:00,
2013-05-17 16:07:00,84.0,-99.9,-100.00,North,-999,-999.0,-999.0,-999,0.00,,,0.78,,2013-05-17 21:07:00,
2013-05-17 16:17:00,84.0,-99.9,-100.00,North,-999,-999.0,-999.0,-999,0.00,,,0.78,,2013-05-17 21:17:00,
2013-05-17 16:26:00,84.0,-99.9,-100.00,North,-999,-999.0,-999.0,-999,0.00,,,0.78,,2013-05-17 21:26:00,
2013-05-17 16:30:00,85.0,-99.9,-100.00,North,-999,-999.0,-999.0,-999,0.00,,,0.78,,2013-05-17 21:30:00,
2013-05-17 16:58:00,85.0,-99.9,-100.00,North,-999,-999.0,-999.0,-999,0.00,,,0.78,,2013-05-17 21:58:00,
2013-05-17 17:07:00,85.0,-99.9,-100.00,North,-999,-999.0,-999.0,-999,0.00,,,0.78,,2013-05-17 22:07:00,
2013-05-17 17:17:00,85.0,-99.9,-100.00,North,-999,-999.0,-999.0,-999,0.00,,,0.78,,2013-05-17 22:17:00,
2013-05-17 17:28:00,85.0,-99.9,-100.00,North,-999,-999.0,-999.0,-999,0.00,,,0.78,,2013-05-17 22:28:00,
2013-05-17 17:30:00,87.0,-99.9,-100.00,North,-999,-999.0,-999.0,-999,0.00,,,0.72,,2013-05-17 22:30:00,
2013-05-17 17:55:00,87.0,-99.9,-100.00,North,-999,-999.0,-999.0,-999,0.00,,,0.72,,2013-05-17 22:55:00,
2013-05-17 18:05:00,87.0,-99.9,-100.00,North,-999,-999.0,-999.0,-999,0.00,,,0.72,,2013-05-17 23:05:00,
2013-05-17 18:13:00,87.0,-99.9,-100.00,North,-999,-999.0,-999.0,-999,0.00,,,0.72,,2013-05-17 23:13:00,
2013-05-17 18:23:00,87.0,-99.9,-100.00,North,-999,-999.0,-999.0,-999,0.00,,,0.72,,2013-05-17 23:23:00,
2013-05-17 18:30:00,87.0,-99.9,-100.00,North,-999,-999.0,-999.0,-999,0.00,,,0.68,,2013-05-17 23:30:00,
2013-05-17 18:54:00,87.0,-99.9,-100.00,North,-999,-999.0,-999.0,-999,0.00,,,0.68,,2013-05-17 23:54:00,
2013-05-17 19:02:00,87.0,-99.9,-100.00,North,-999,-999.0,-999.0,-999,0.00,,,0.68,,2013-05-18 00:02:00,
2013-05-17 19:14:00,87.0,-99.9,-100.00,North,-999,-999.0,-999.0,-999,0.00,,,0.68,,2013-05-18 00:14:00,
2013-05-17 19:22:00,87.0,-99.9,-100.00,North,-999,-999.0,-999.0,-999,0.00,,,0.68,,2013-05-18 00:22:00,
2013-05-17 19:30:00,85.0,-99.9,-100.00,North,-999,-999.0,-999.0,-999,0.00,,,0.68,,2013-05-18 00:30:00,
2013-05-17 19:54:00,85.0,-99.9,-100.00,North,-999,-999.0,-999.0,-999,0.00,,,0.68,,2013-05-18 00:54:00,
2013-05-17 20:03:00,85.0,-99.9,-100.00,North,-999,-999.0,-999.0,-999,0.00,,,0.68,,2013-05-18 01:03:00,
2013-05-17 20:14:00,85.0,-99.9,-100.00,North,-999,-999.0,-999.0,-999,0.00,,,0.68,,2013-05-18 01:14:00,
2013-05-17 20:24:00,85.0,-99.9,-100.00,North,-999,-999.0,-999.0,-999,0.00,,,0.68,,2013-05-18 01:24:00,
2013-05-17 20:30:00,79.0,-99.9,-100.00,North,-999,-999.0,-999.0,-999,0.00,,,0.67,,2013-05-18 01:30:00,
2013-05-17 20:53:00,79.0,-99.9,-100.00,North,-999,-999.0,-999.0,-999,0.00,,,0.67,,2013-05-18 01:53:00,
2013-05-17 21:03:00,79.0,-99.9,-100.00,North,-999,-999.0,-999.0,-999,0.00,,,0.67,,2013-05-18 02:03:00,
2013-05-17 21:12:00,79.0,-99.9,-100.00,North,-999,-999.0,-999.0,-999,0.00,,,0.67,,2013-05-18 02:12:00,
2013-05-17 21:23:00,79.0,-99.9,-100.00,North,-999,-999.0,-999.0,-999,0.00,,,0.67,,2013-05-18 02:23:00,
2013-05-17 21:30:00,85.0,-99.9,-100.00,North,-999,-999.0,-999.0,-999,0.00,,,0.66,,2013-05-18 02:30:00,
2013-05-17 21:54:00,85.0,-99.9,-100.00,North,-999,-999.0,-999.0,-999,0.00,,,0.66,,2013-05-18 02:54:00,
2013-05-17 22:03:00,85.0,-99.9,-100.00,North,-999,-999.0,-999.0,-999,0.00,,,0.66,,2013-05-18 03:03:00,
2013-05-17 22:12:00,85.0,-99.9,-100.00,North,-999,-999.0,-999.0,-999,0.00,,,0.66,,2013-05-18 03:12:00,
2013-05-17 22:23:00,85.0,-99.9,-100.00,North,-999,-999.0,-999.0,-999,0.00,,,0.66,,2013-05-18 03:23:00,
2013-05-17 23:30:00,75.0,-99.9,-100.00,North,-999,-999.0,-999.0,-999,0.00,,,0.15,,2013-05-18 04:30:00,
2013-05-17 23:53:00,75.0,-99.9,-100.00,North,-999,-999.0,-999.0,-999,0.00,,,0.15,,2013-05-18 04:53:00,